Time,TemperatureF,DewpointF,PressureIn,WindDirection,WindDirectionDegrees,WindSpeedMPH,WindSpeedGustMPH,Humidity,HourlyPrecipIn,Conditions,Clouds,dailyrainin,SoftwareType,DateUTC
2013-04-26 00:01:00,45.0,33.6,27.53,SW,225,0.0,0.4,64,0.00,,,0.00,WUHU216HW,2013-04-26 07:01:00,
2013-04-26 00:06:00,44.8,33.4,27.54,ENE,68,0.4,0.4,64,0.00,,,0.00,WUHU216HW,2013-04-26 07:06:00,
2013-04-26 00:11:00,44.5,33.8,27.54,NE,45,0.4,0.9,66,0.00,,,0.00,WUHU216HW,2013-04-26 07:11:00,
2013-04-26 00:16:00,44.3,33.2,27.54,NNE,23,0.0,0.9,65,0.00,,,0.00,WUHU216HW,2013-04-26 07:16:00,
2013-04-26 00:21:00,44.1,33.9,27.54,ENE,68,0.4,0.9,67,0.00,,,0.00,WUHU216HW,2013-04-26 07:21:00,
2013-04-26 00:26:00,43.6,33.3,27.54,ESE,113,0.0,0.9,67,0.00,,,0.00,WUHU216HW,2013-04-26 07:26:00,
2013-04-26 00:31:00,43.4,33.6,27.54,NE,45,0.9,0.9,68,0.00,,,0.00,WUHU216HW,2013-04-26 07:31:00,
2013-04-26 00:36:00,43.2,33.4,27.54,ESE,113,0.0,0.9,68,0.00,,,0.00,WUHU216HW,2013-04-26 07:36:00,
2013-04-26 00:41:00,42.8,33.0,27.54,ENE,68,0.7,0.7,68,0.00,,,0.00,WUHU216HW,2013-04-26 07:41:00,
2013-04-26 00:46:00,42.3,33.3,27.55,ENE,68,0.2,0.7,70,0.00,,,0.00,WUHU216HW,2013-04-26 07:46:00,
2013-04-26 00:51:00,42.1,33.5,27.55,ENE,68,0.4,0.7,71,0.00,,,0.00,WUHU216HW,2013-04-26 07:51:00,
2013-04-26 00:56:00,41.9,32.9,27.54,ENE,68,0.4,0.7,70,0.00,,,0.00,WUHU216HW,2013-04-26 07:56:00,
2013-04-26 01:01:00,41.6,33.0,27.55,ENE,68,1.1,1.1,71,0.00,,,0.00,WUHU216HW,2013-04-26 08:01:00,
2013-04-26 01:06:00,41.4,32.8,27.55,ENE,68,0.2,1.1,71,0.00,,,0.00,WUHU216HW,2013-04-26 08:06:00,
2013-04-26 01:11:00,41.2,32.6,27.55,ENE,68,0.0,0.9,71,0.00,,,0.00,WUHU216HW,2013-04-26 08:11:00,
2013-04-26 01:16:00,41.0,32.4,27.55,NE,45,0.0,0.9,71,0.00,,,0.00,WUHU216HW,2013-04-26 08:16:00,
2013-04-26 01:21:00,40.9,32.2,27.54,NNE,23,0.0,0.2,71,0.00,,,0.00,WUHU216HW,2013-04-26 08:21:00,
2013-04-26 01:26:00,40.7,31.7,27.55,NNE,23,0.2,0.2,70,0.00,,,0.00,WUHU216HW,2013-04-26 08:26:00,
2013-04-26 01:31:00,40.7,32.3,27.55,NE,45,0.2,0.4,72,0.00,,,0.00,WUHU216HW,2013-04-26 08:31:00,
2013-04-26 01:36:00,40.5,32.1,27.54,NNE,23,0.0,0.4,72,0.00,,,0.00,WUHU216HW,2013-04-26 08:36:00,
2013-04-26 01:41:00,40.5,32.1,27.55,NNE,23,0.0,0.4,72,0.00,,,0.00,WUHU216HW,2013-04-26 08:41:00,
2013-04-26 01:46:00,40.5,32.5,27.55,North,0,0.0,0.4,73,0.00,,,0.00,WUHU216HW,2013-04-26 08:46:00,
2013-04-26 01:51:00,40.5,31.9,27.55,North,0,0.0,0.2,71,0.00,,,0.00,WUHU216HW,2013-04-26 08:51:00,
2013-04-26 01:56:00,40.5,32.1,27.54,NE,45,0.4,0.4,72,0.00,,,0.00,WUHU216HW,2013-04-26 08:56:00,
2013-04-26 02:01:00,40.3,32.7,27.55,NE,45,0.0,0.4,74,0.00,,,0.00,WUHU216HW,2013-04-26 09:01:00,
2013-04-26 02:06:00,40.3,32.7,27.55,NNE,23,0.0,0.4,74,0.00,,,0.00,WUHU216HW,2013-04-26 09:06:00,
2013-04-26 02:11:00,40.3,32.7,27.54,NNE,23,0.0,0.0,74,0.00,,,0.00,WUHU216HW,2013-04-26 09:11:00,
2013-04-26 02:16:00,40.3,32.7,27.54,NNE,23,0.0,0.4,74,0.00,,,0.00,WUHU216HW,2013-04-26 09:16:00,
2013-04-26 02:21:00,40.1,32.5,27.54,NNE,23,0.0,0.4,74,0.00,,,0.00,WUHU216HW,2013-04-26 09:21:00,
2013-04-26 02:26:00,40.1,32.5,27.54,NNE,23,0.0,0.0,74,0.00,,,0.00,WUHU216HW,2013-04-26 09:26:00,
2013-04-26 02:31:00,40.3,32.7,27.55,NNE,23,0.0,0.0,74,0.00,,,0.00,WUHU216HW,2013-04-26 09:31:00,
2013-04-26 02:36:00,40.3,33.7,27.55,ESE,113,0.4,0.4,77,0.00,,,0.00,WUHU216HW,2013-04-26 09:36:00,
2013-04-26 02:41:00,40.5,33.1,27.55,ESE,113,0.4,1.1,75,0.00,,,0.00,WUHU216HW,2013-04-26 09:41:00,
2013-04-26 02:46:00,40.5,32.9,27.55,ESE,113,0.0,1.1,74,0.00,,,0.00,WUHU216HW,2013-04-26 09:46:00,
2013-04-26 02:51:00,40.7,33.0,27.55,ESE,113,0.0,1.3,74,0.00,,,0.00,WUHU216HW,2013-04-26 09:51:00,
2013-04-26 02:56:00,40.9,33.1,27.55,ESE,113,0.7,1.3,74,0.00,,,0.00,WUHU216HW,2013-04-26 09:56:00,
2013-04-26 03:01:00,41.2,33.8,27.55,ESE,113,1.1,1.1,75,0.00,,,0.00,WUHU216HW,2013-04-26 10:01:00,
2013-04-26 03:06:00,41.4,33.7,27.55,ESE,113,0.4,1.1,74,0.00,,,0.00,WUHU216HW,2013-04-26 10:06:00,
2013-04-26 03:11:00,41.4,33.0,27.55,NE,45,0.0,1.1,72,0.00,,,0.00,WUHU216HW,2013-04-26 10:11:00,
2013-04-26 03:16:00,41.2,33.2,27.56,NE,45,0.0,0.0,73,0.00,,,0.00,WUHU216HW,2013-04-26 10:16:00,
2013-04-26 03:21:00,41.2,33.2,27.56,SE,135,0.0,0.9,73,0.00,,,0.00,WUHU216HW,2013-04-26 10:21:00,
2013-04-26 03:26:00,40.5,32.5,27.57,WSW,248,0.0,0.9,73,0.00,,,0.00,WUHU216HW,2013-04-26 10:26:00,
2013-04-26 03:31:00,40.0,32.3,27.57,SW,225,0.0,0.9,74,0.00,,,0.00,WUHU216HW,2013-04-26 10:31:00,
2013-04-26 03:36:00,39.2,31.2,27.57,SW,225,0.0,0.0,73,0.00,,,0.00,WUHU216HW,2013-04-26 10:36:00,
2013-04-26 03:41:00,38.7,31.2,27.57,East,90,0.0,0.4,74,0.00,,,0.00,WUHU216HW,2013-04-26 10:41:00,
2013-04-26 03:46:00,38.5,32.0,27.57,NE,45,0.0,0.4,77,0.00,,,0.00,WUHU216HW,2013-04-26 10:46:00,
2013-04-26 03:51:00,38.5,32.0,27.57,NE,45,0.0,0.4,77,0.00,,,0.00,WUHU216HW,2013-04-26 10:51:00,
2013-04-26 03:56:00,38.5,32.0,27.57,NE,45,0.0,0.0,77,0.00,,,0.00,WUHU216HW,2013-04-26 10:56:00,
2013-04-26 04:01:00,38.3,31.8,27.57,ENE,68,0.4,0.4,77,0.00,,,0.00,WUHU216HW,2013-04-26 11:01:00,
2013-04-26 04:06:00,38.3,32.1,27.57,ENE,68,0.0,0.4,78,0.00,,,0.00,WUHU216HW,2013-04-26 11:06:00,
2013-04-26 04:11:00,38.2,32.0,27.57,ENE,68,0.0,0.2,78,0.00,,,0.00,WUHU216HW,2013-04-26 11:11:00,
2013-04-26 04:16:00,38.2,32.0,27.57,NE,45,0.0,0.0,78,0.00,,,0.00,WUHU216HW,2013-04-26 11:16:00,
2013-04-26 04:21:00,38.0,31.8,27.57,NE,45,0.4,0.4,78,0.00,,,0.00,WUHU216HW,2013-04-26 11:21:00,
2013-04-26 04:26:00,37.8,31.6,27.57,NE,45,0.0,0.4,78,0.00,,,0.00,WUHU216HW,2013-04-26 11:26:00,
2013-04-26 04:31:00,37.6,31.4,27.57,ENE,68,0.0,0.4,78,0.00,,,0.00,WUHU216HW,2013-04-26 11:31:00,
2013-04-26 04:36:00,37.4,31.5,27.57,ENE,68,0.0,0.7,79,0.00,,,0.00,WUHU216HW,2013-04-26 11:36:00,
2013-04-26 04:41:00,37.3,31.1,27.57,ENE,68,0.0,0.7,78,0.00,,,0.00,WUHU216HW,2013-04-26 11:41:00,
2013-04-26 04:46:00,37.1,31.1,27.58,ENE,68,0.0,0.0,79,0.00,,,0.00,WUHU216HW,2013-04-26 11:46:00,
2013-04-26 04:51:00,37.1,30.9,27.58,ENE,68,0.0,0.0,78,0.00,,,0.00,WUHU216HW,2013-04-26 11:51:00,
2013-04-26 04:56:00,36.9,30.7,27.58,ENE,68,0.0,0.0,78,0.00,,,0.00,WUHU216HW,2013-04-26 11:56:00,
2013-04-26 05:01:00,36.5,30.6,27.58,ESE,113,0.0,0.0,79,0.00,,,0.00,WUHU216HW,2013-04-26 12:01:00,
2013-04-26 05:06:00,36.4,31.1,27.58,ENE,68,0.2,0.7,81,0.00,,,0.00,WUHU216HW,2013-04-26 12:06:00,
2013-04-26 05:11:00,36.4,31.1,27.58,East,90,0.0,0.7,81,0.00,,,0.00,WUHU216HW,2013-04-26 12:11:00,
2013-04-26 05:16:00,36.2,31.1,27.58,ENE,68,0.2,0.7,82,0.00,,,0.00,WUHU216HW,2013-04-26 12:16:00,
2013-04-26 05:21:00,36.2,31.1,27.58,ENE,68,0.0,0.7,82,0.00,,,0.00,WUHU216HW,2013-04-26 12:21:00,
2013-04-26 05:26:00,36.0,30.7,27.58,ENE,68,0.0,0.4,81,0.00,,,0.00,WUHU216HW,2013-04-26 12:26:00,
2013-04-26 05:31:00,35.6,30.3,27.59,ENE,68,0.0,0.0,81,0.00,,,0.00,WUHU216HW,2013-04-26 12:31:00,
2013-04-26 05:36:00,35.6,30.3,27.59,ENE,68,0.0,0.0,81,0.00,,,0.00,WUHU216HW,2013-04-26 12:36:00,
2013-04-26 05:41:00,35.3,30.6,27.59,ENE,68,0.4,0.4,83,0.00,,,0.00,WUHU216HW,2013-04-26 12:41:00,
2013-04-26 05:46:00,35.5,30.8,27.59,East,90,0.0,0.4,83,0.00,,,0.00,WUHU216HW,2013-04-26 12:46:00,
2013-04-26 05:51:00,35.3,30.6,27.59,East,90,0.0,0.4,83,0.00,,,0.00,WUHU216HW,2013-04-26 12:51:00,
2013-04-26 05:56:00,35.3,30.9,27.60,SSW,203,0.0,0.2,84,0.00,,,0.00,WUHU216HW,2013-04-26 12:56:00,
2013-04-26 06:01:00,35.3,30.2,27.60,North,0,0.0,0.0,82,0.00,,,0.00,WUHU216HW,2013-04-26 13:01:00,
2013-04-26 06:06:00,35.3,30.2,27.60,ENE,68,0.4,0.4,82,0.00,,,0.00,WUHU216HW,2013-04-26 13:06:00,
2013-04-26 06:11:00,35.3,30.9,27.60,ENE,68,0.4,0.4,84,0.00,,,0.00,WUHU216HW,2013-04-26 13:11:00,
2013-04-26 06:16:00,35.5,31.1,27.60,NE,45,0.7,0.7,84,0.00,,,0.00,WUHU216HW,2013-04-26 13:16:00,
2013-04-26 06:21:00,35.5,31.1,27.60,NE,45,0.0,0.9,84,0.00,,,0.00,WUHU216HW,2013-04-26 13:21:00,
2013-04-26 06:26:00,35.6,31.2,27.60,ENE,68,0.0,0.9,84,0.00,,,0.00,WUHU216HW,2013-04-26 13:26:00,
2013-04-26 06:31:00,35.6,31.2,27.60,ENE,68,0.0,0.0,84,0.00,,,0.00,WUHU216HW,2013-04-26 13:31:00,
2013-04-26 06:36:00,35.8,31.2,27.61,NNE,23,0.0,0.0,83,0.00,,,0.00,WUHU216HW,2013-04-26 13:36:00,
2013-04-26 06:41:00,36.0,31.6,27.61,NNW,338,0.0,0.0,84,0.00,,,0.00,WUHU216HW,2013-04-26 13:41:00,
2013-04-26 06:46:00,36.2,31.5,27.61,NNW,338,0.0,0.0,83,0.00,,,0.00,WUHU216HW,2013-04-26 13:46:00,
2013-04-26 06:51:00,36.2,31.8,27.61,NE,45,0.0,0.0,84,0.00,,,0.00,WUHU216HW,2013-04-26 13:51:00,
2013-04-26 06:56:00,36.4,32.2,27.61,ENE,68,0.0,0.7,85,0.00,,,0.00,WUHU216HW,2013-04-26 13:56:00,
2013-04-26 07:01:00,36.7,32.6,27.61,NNE,23,0.0,0.7,85,0.00,,,0.00,WUHU216HW,2013-04-26 14:01:00,
2013-04-26 07:06:00,37.4,33.3,27.61,NE,45,0.7,0.7,85,0.00,,,0.00,WUHU216HW,2013-04-26 14:06:00,
2013-04-26 07:11:00,37.8,33.7,27.61,NE,45,0.0,1.1,85,0.00,,,0.00,WUHU216HW,2013-04-26 14:11:00,
2013-04-26 07:16:00,38.3,33.9,27.62,NE,45,0.0,1.1,84,0.00,,,0.00,WUHU216HW,2013-04-26 14:16:00,
2013-04-26 07:21:00,39.1,34.9,27.62,NNE,23,0.0,0.2,85,0.00,,,0.00,WUHU216HW,2013-04-26 14:21:00,
2013-04-26 07:26:00,40.0,36.4,27.62,South,180,0.0,0.4,87,0.00,,,0.00,WUHU216HW,2013-04-26 14:26:00,
2013-04-26 07:31:00,41.9,37.7,27.62,SSW,203,0.0,0.4,85,0.00,,,0.00,WUHU216HW,2013-04-26 14:31:00,
2013-04-26 07:36:00,44.1,38.6,27.62,SSW,203,1.8,1.8,81,0.00,,,0.00,WUHU216HW,2013-04-26 14:36:00,
2013-04-26 07:41:00,45.7,39.0,27.62,SSE,158,1.8,1.8,77,0.00,,,0.00,WUHU216HW,2013-04-26 14:41:00,
2013-04-26 07:46:00,46.6,39.2,27.62,SE,135,2.5,2.5,75,0.00,,,0.00,WUHU216HW,2013-04-26 14:46:00,
2013-04-26 07:51:00,47.5,39.2,27.63,SSE,158,2.0,3.4,73,0.00,,,0.00,WUHU216HW,2013-04-26 14:51:00,
2013-04-26 07:56:00,48.8,39.4,27.63,SW,225,1.8,3.4,70,0.00,,,0.00,WUHU216HW,2013-04-26 14:56:00,
2013-04-26 08:01:00,49.9,39.7,27.63,SE,135,0.2,3.4,68,0.00,,,0.00,WUHU216HW,2013-04-26 15:01:00,
2013-04-26 08:06:00,50.6,40.4,27.63,SSW,203,1.8,3.4,68,0.00,,,0.00,WUHU216HW,2013-04-26 15:06:00,
2013-04-26 08:11:00,51.3,40.3,27.63,SE,135,0.4,1.8,66,0.00,,,0.00,WUHU216HW,2013-04-26 15:11:00,
2013-04-26 08:16:00,52.0,40.6,27.63,SSE,158,0.4,1.3,65,0.00,,,0.00,WUHU216HW,2013-04-26 15:16:00,
2013-04-26 08:21:00,52.2,40.3,27.64,SE,135,0.4,1.6,64,0.00,,,0.00,WUHU216HW,2013-04-26 15:21:00,
2013-04-26 08:26:00,52.2,40.8,27.64,SSE,158,1.1,2.2,65,0.00,,,0.00,WUHU216HW,2013-04-26 15:26:00,
2013-04-26 08:31:00,52.6,41.5,27.64,SSE,158,1.1,2.5,66,0.00,,,0.00,WUHU216HW,2013-04-26 15:31:00,
2013-04-26 08:36:00,52.9,40.6,27.64,SW,225,0.4,2.5,63,0.00,,,0.00,WUHU216HW,2013-04-26 15:36:00,
2013-04-26 08:41:00,53.1,40.8,27.63,SW,225,2.5,3.6,63,0.00,,,0.00,WUHU216HW,2013-04-26 15:41:00,
2013-04-26 08:46:00,53.6,41.0,27.64,South,180,2.0,3.6,62,0.00,,,0.00,WUHU216HW,2013-04-26 15:46:00,
2013-04-26 08:51:00,54.9,41.7,27.64,SSW,203,2.0,3.4,61,0.00,,,0.00,WUHU216HW,2013-04-26 15:51:00,
2013-04-26 08:56:00,56.2,41.6,27.64,SSW,203,1.3,2.2,58,0.00,,,0.00,WUHU216HW,2013-04-26 15:56:00,
2013-04-26 09:01:00,57.4,41.0,27.64,SE,135,1.1,2.2,54,0.00,,,0.00,WUHU216HW,2013-04-26 16:01:00,
2013-04-26 09:06:00,58.0,41.9,27.64,SW,225,2.2,2.9,55,0.00,,,0.00,WUHU216HW,2013-04-26 16:06:00,
2013-04-26 09:11:00,58.9,41.8,27.64,SW,225,2.5,3.4,53,0.00,,,0.00,WUHU216HW,2013-04-26 16:11:00,
2013-04-26 09:16:00,59.2,42.0,27.64,SW,225,3.8,3.8,53,0.00,,,0.00,WUHU216HW,2013-04-26 16:16:00,
2013-04-26 09:21:00,59.8,42.6,27.64,SW,225,1.3,3.8,53,0.00,,,0.00,WUHU216HW,2013-04-26 16:21:00,
2013-04-26 09:26:00,60.3,42.1,27.65,SW,225,2.7,2.9,51,0.00,,,0.00,WUHU216HW,2013-04-26 16:26:00,
2013-04-26 09:31:00,60.8,43.1,27.65,SSW,203,1.1,2.9,52,0.00,,,0.00,WUHU216HW,2013-04-26 16:31:00,
2013-04-26 09:36:00,61.6,42.8,27.64,SE,135,1.8,2.7,50,0.00,,,0.00,WUHU216HW,2013-04-26 16:36:00,
2013-04-26 09:41:00,61.9,41.9,27.65,ENE,68,2.2,2.9,48,0.00,,,0.00,WUHU216HW,2013-04-26 16:41:00,
2013-04-26 09:46:00,61.9,41.4,27.65,SW,225,0.9,2.9,47,0.00,,,0.00,WUHU216HW,2013-04-26 16:46:00,
2013-04-26 09:51:00,62.3,42.3,27.65,SE,135,3.4,3.4,48,0.00,,,0.00,WUHU216HW,2013-04-26 16:51:00,
2013-04-26 09:56:00,62.6,42.6,27.65,South,180,3.4,3.4,48,0.00,,,0.00,WUHU216HW,2013-04-26 16:56:00,
2013-04-26 10:01:00,63.2,43.1,27.65,WSW,248,3.8,3.8,48,0.00,,,0.00,WUHU216HW,2013-04-26 17:01:00,
2013-04-26 10:06:00,63.2,43.1,27.65,SW,225,0.2,4.0,48,0.00,,,0.00,WUHU216HW,2013-04-26 17:06:00,
2013-04-26 10:11:00,63.5,42.9,27.65,SE,135,1.8,4.0,47,0.00,,,0.00,WUHU216HW,2013-04-26 17:11:00,
2013-04-26 10:16:00,64.1,42.8,27.65,South,180,4.0,4.0,46,0.00,,,0.00,WUHU216HW,2013-04-26 17:16:00,
2013-04-26 10:21:00,64.3,43.5,27.65,SSE,158,1.3,4.9,47,0.00,,,0.00,WUHU216HW,2013-04-26 17:21:00,
2013-04-26 10:26:00,64.6,44.4,27.65,SSW,203,1.1,4.9,48,0.00,,,0.00,WUHU216HW,2013-04-26 17:26:00,
2013-04-26 10:31:00,64.8,44.0,27.65,South,180,4.0,4.0,47,0.00,,,0.00,WUHU216HW,2013-04-26 17:31:00,
2013-04-26 10:36:00,65.0,43.6,27.65,SW,225,2.7,4.9,46,0.00,,,0.00,WUHU216HW,2013-04-26 17:36:00,
2013-04-26 10:41:00,65.3,42.8,27.66,SE,135,3.8,4.9,44,0.00,,,0.00,WUHU216HW,2013-04-26 17:41:00,
2013-04-26 10:46:00,65.9,45.0,27.66,SSW,203,3.4,3.8,47,0.00,,,0.00,WUHU216HW,2013-04-26 17:46:00,
2013-04-26 10:51:00,66.4,44.9,27.66,ESE,113,1.3,4.7,46,0.00,,,0.00,WUHU216HW,2013-04-26 17:51:00,
2013-04-26 10:56:00,67.0,42.5,27.66,WSW,248,5.6,5.6,41,0.00,,,0.00,WUHU216HW,2013-04-26 17:56:00,
2013-04-26 11:01:00,66.6,43.9,27.66,SW,225,5.1,5.6,44,0.00,,,0.00,WUHU216HW,2013-04-26 18:01:00,
2013-04-26 11:06:00,66.2,43.0,27.66,SW,225,3.4,5.6,43,0.00,,,0.00,WUHU216HW,2013-04-26 18:06:00,
2013-04-26 11:11:00,66.6,43.9,27.66,WSW,248,3.4,5.6,44,0.00,,,0.00,WUHU216HW,2013-04-26 18:11:00,
2013-04-26 11:16:00,67.3,42.8,27.66,SW,225,6.5,6.5,41,0.00,,,0.00,WUHU216HW,2013-04-26 18:16:00,
2013-04-26 11:21:00,67.5,42.9,27.66,WSW,248,4.0,6.5,41,0.00,,,0.00,WUHU216HW,2013-04-26 18:21:00,
2013-04-26 11:26:00,68.0,44.7,27.66,SW,225,3.4,6.3,43,0.00,,,0.00,WUHU216HW,2013-04-26 18:26:00,
2013-04-26 11:31:00,68.6,43.9,27.65,South,180,4.0,6.3,41,0.00,,,0.00,WUHU216HW,2013-04-26 18:31:00,
2013-04-26 11:36:00,68.6,46.3,27.65,SSW,203,2.5,5.1,45,0.00,,,0.00,WUHU216HW,2013-04-26 18:36:00,
2013-04-26 11:41:00,69.1,46.8,27.65,SSW,203,2.2,4.7,45,0.00,,,0.00,WUHU216HW,2013-04-26 18:41:00,
2013-04-26 11:46:00,69.5,45.4,27.65,SW,225,4.7,4.7,42,0.00,,,0.00,WUHU216HW,2013-04-26 18:46:00,
2013-04-26 11:51:00,69.8,44.5,27.65,WSW,248,3.4,4.7,40,0.00,,,0.00,WUHU216HW,2013-04-26 18:51:00,
2013-04-26 11:56:00,69.8,45.6,27.65,SSW,203,1.8,5.6,42,0.00,,,0.00,WUHU216HW,2013-04-26 18:56:00,
2013-04-26 12:01:00,70.6,45.7,27.65,SW,225,3.4,5.6,41,0.00,,,0.00,WUHU216HW,2013-04-26 19:01:00,
2013-04-26 12:07:00,70.6,45.1,27.65,SW,225,2.5,5.6,40,0.00,,,0.00,WUHU216HW,2013-04-26 19:07:00,
2013-04-26 12:12:00,70.0,45.2,27.65,WSW,248,2.0,6.5,41,0.00,,,0.00,WUHU216HW,2013-04-26 19:12:00,
2013-04-26 12:17:00,70.9,46.0,27.65,SW,225,4.5,6.5,41,0.00,,,0.00,WUHU216HW,2013-04-26 19:17:00,
2013-04-26 12:21:00,70.6,44.4,27.65,SSW,203,3.4,4.5,39,0.00,,,0.00,WUHU216HW,2013-04-26 19:21:00,
2013-04-26 12:26:00,70.2,43.3,27.65,SW,225,5.4,5.4,38,0.00,,,0.00,WUHU216HW,2013-04-26 19:26:00,
2013-04-26 12:32:00,69.8,42.2,27.64,SSW,203,1.8,6.9,37,0.00,,,0.00,WUHU216HW,2013-04-26 19:32:00,
2013-04-26 12:37:00,70.4,43.5,27.64,SW,225,4.3,6.9,38,0.00,,,0.00,WUHU216HW,2013-04-26 19:37:00,
2013-04-26 12:42:00,70.6,43.7,27.64,West,270,2.5,11.0,38,0.00,,,0.00,WUHU216HW,2013-04-26 19:42:00,
2013-04-26 12:47:00,71.1,43.4,27.64,SW,225,7.2,11.0,37,0.00,,,0.00,WUHU216HW,2013-04-26 19:47:00,
2013-04-26 12:52:00,71.1,44.8,27.64,SE,135,3.1,7.2,39,0.00,,,0.00,WUHU216HW,2013-04-26 19:52:00,
2013-04-26 12:57:00,71.6,45.4,27.64,WSW,248,2.2,4.7,39,0.00,,,0.00,WUHU216HW,2013-04-26 19:57:00,
2013-04-26 13:02:00,71.6,44.7,27.64,SSW,203,3.8,4.3,38,0.00,,,0.00,WUHU216HW,2013-04-26 20:02:00,
2013-04-26 13:07:00,71.6,47.3,27.64,South,180,1.8,3.8,42,0.00,,,0.00,WUHU216HW,2013-04-26 20:07:00,
2013-04-26 13:12:00,72.4,46.0,27.64,SSE,158,4.3,4.3,39,0.00,,,0.00,WUHU216HW,2013-04-26 20:12:00,
2013-04-26 13:17:00,72.4,45.3,27.64,South,180,4.9,4.9,38,0.00,,,0.00,WUHU216HW,2013-04-26 20:17:00,
2013-04-26 13:22:00,72.4,46.0,27.64,SW,225,4.7,4.9,39,0.00,,,0.00,WUHU216HW,2013-04-26 20:22:00,
2013-04-26 13:27:00,71.6,44.7,27.64,SSW,203,6.0,7.8,38,0.00,,,0.00,WUHU216HW,2013-04-26 20:27:00,
2013-04-26 13:32:00,71.5,44.5,27.64,SSW,203,4.9,7.8,38,0.00,,,0.00,WUHU216HW,2013-04-26 20:32:00,
2013-04-26 13:37:00,71.3,44.3,27.64,SW,225,6.3,6.9,38,0.00,,,0.00,WUHU216HW,2013-04-26 20:37:00,
2013-04-26 13:42:00,71.8,44.0,27.64,SW,225,6.5,6.9,37,0.00,,,0.00,WUHU216HW,2013-04-26 20:42:00,
2013-04-26 13:47:00,72.4,46.0,27.64,SSE,158,2.5,6.5,39,0.00,,,0.00,WUHU216HW,2013-04-26 20:47:00,
2013-04-26 13:52:00,73.4,44.6,27.64,SSW,203,2.0,4.7,36,0.00,,,0.00,WUHU216HW,2013-04-26 20:52:00,
2013-04-26 13:57:00,73.8,41.9,27.64,West,270,4.7,4.7,32,0.00,,,0.00,WUHU216HW,2013-04-26 20:57:00,
2013-04-26 14:02:00,74.2,43.8,27.64,SSW,203,4.0,6.7,34,0.00,,,0.00,WUHU216HW,2013-04-26 21:02:00,
2013-04-26 14:07:00,74.7,42.0,27.64,SW,225,4.0,6.7,31,0.00,,,0.00,WUHU216HW,2013-04-26 21:07:00,
2013-04-26 14:12:00,74.5,41.9,27.64,SW,225,5.4,5.4,31,0.00,,,0.00,WUHU216HW,2013-04-26 21:12:00,
2013-04-26 14:17:00,73.8,38.4,27.64,WSW,248,6.0,8.5,28,0.00,,,0.00,WUHU216HW,2013-04-26 21:17:00,
2013-04-26 14:22:00,74.0,39.6,27.64,WSW,248,5.4,8.5,29,0.00,,,0.00,WUHU216HW,2013-04-26 21:22:00,
2013-04-26 14:27:00,74.9,40.4,27.63,SW,225,6.7,7.2,29,0.00,,,0.00,WUHU216HW,2013-04-26 21:27:00,
2013-04-26 14:32:00,74.5,38.1,27.63,SSW,203,4.7,7.2,27,0.00,,,0.00,WUHU216HW,2013-04-26 21:32:00,
2013-04-26 14:37:00,74.0,36.5,27.64,SW,225,3.4,6.3,26,0.00,,,0.00,WUHU216HW,2013-04-26 21:37:00,
2013-04-26 14:42:00,74.5,38.1,27.63,SSW,203,4.7,6.0,27,0.00,,,0.00,WUHU216HW,2013-04-26 21:42:00,
2013-04-26 14:47:00,74.5,40.1,27.63,SW,225,6.0,6.0,29,0.00,,,0.00,WUHU216HW,2013-04-26 21:47:00,
2013-04-26 14:52:00,74.0,38.6,27.63,SW,225,3.4,7.4,28,0.00,,,0.00,WUHU216HW,2013-04-26 21:52:00,
2013-04-26 14:57:00,74.3,41.0,27.63,WSW,248,1.6,7.4,30,0.00,,,0.00,WUHU216HW,2013-04-26 21:57:00,
2013-04-26 15:02:00,74.3,41.0,27.63,South,180,5.4,6.7,30,0.00,,,0.00,WUHU216HW,2013-04-26 22:02:00,
2013-04-26 15:07:00,74.0,40.6,27.63,SW,225,5.8,6.7,30,0.00,,,0.00,WUHU216HW,2013-04-26 22:07:00,
2013-04-26 15:12:00,74.2,40.8,27.63,WSW,248,4.9,6.7,30,0.00,,,0.00,WUHU216HW,2013-04-26 22:12:00,
2013-04-26 15:17:00,74.5,41.1,27.63,WSW,248,4.7,5.8,30,0.00,,,0.00,WUHU216HW,2013-04-26 22:17:00,
2013-04-26 15:22:00,74.2,40.8,27.63,SW,225,4.9,6.9,30,0.00,,,0.00,WUHU216HW,2013-04-26 22:22:00,
2013-04-26 15:27:00,72.7,41.0,27.62,SW,225,2.5,6.9,32,0.00,,,0.00,WUHU216HW,2013-04-26 22:27:00,
2013-04-26 15:32:00,72.5,41.7,27.63,SW,225,3.1,5.6,33,0.00,,,0.00,WUHU216HW,2013-04-26 22:32:00,
2013-04-26 15:37:00,73.4,41.7,27.63,SW,225,4.7,6.0,32,0.00,,,0.00,WUHU216HW,2013-04-26 22:37:00,
2013-04-26 15:42:00,74.0,40.6,27.62,SW,225,5.1,6.0,30,0.00,,,0.00,WUHU216HW,2013-04-26 22:42:00,
2013-04-26 15:47:00,73.4,39.2,27.62,WSW,248,6.9,6.9,29,0.00,,,0.00,WUHU216HW,2013-04-26 22:47:00,
2013-04-26 15:52:00,73.4,40.9,27.62,SW,225,2.7,7.8,31,0.00,,,0.00,WUHU216HW,2013-04-26 22:52:00,
2013-04-26 15:57:00,73.4,39.2,27.63,South,180,4.0,7.8,29,0.00,,,0.00,WUHU216HW,2013-04-26 22:57:00,
2013-04-26 16:02:00,72.7,39.6,27.62,SSW,203,4.0,5.4,30,0.00,,,0.00,WUHU216HW,2013-04-26 23:02:00,
2013-04-26 16:07:00,72.4,38.3,27.63,WSW,248,6.5,6.5,29,0.00,,,0.00,WUHU216HW,2013-04-26 23:07:00,
2013-04-26 16:12:00,72.4,38.3,27.63,WSW,248,4.7,6.5,29,0.00,,,0.00,WUHU216HW,2013-04-26 23:12:00,
2013-04-26 16:17:00,72.5,39.4,27.62,SW,225,6.3,6.3,30,0.00,,,0.00,WUHU216HW,2013-04-26 23:17:00,
2013-04-26 16:22:00,72.5,39.4,27.62,SW,225,1.1,6.3,30,0.00,,,0.00,WUHU216HW,2013-04-26 23:22:00,
2013-04-26 16:27:00,73.3,39.0,27.62,SSW,203,6.3,6.3,29,0.00,,,0.00,WUHU216HW,2013-04-26 23:27:00,
2013-04-26 16:32:00,73.6,40.3,27.62,WSW,248,5.4,6.3,30,0.00,,,0.00,WUHU216HW,2013-04-26 23:32:00,
2013-04-26 16:37:00,73.8,39.4,27.62,SSW,203,4.3,5.6,29,0.00,,,0.00,WUHU216HW,2013-04-26 23:37:00,
2013-04-26 16:42:00,73.4,40.1,27.62,SW,225,2.9,5.4,30,0.00,,,0.00,WUHU216HW,2013-04-26 23:42:00,
2013-04-26 16:47:00,72.4,38.3,27.62,South,180,4.9,5.4,29,0.00,,,0.00,WUHU216HW,2013-04-26 23:47:00,
2013-04-26 16:52:00,71.5,38.5,27.62,SSW,203,2.9,5.4,30,0.00,,,0.00,WUHU216HW,2013-04-26 23:52:00,
2013-04-26 16:54:00,70.9,38.8,27.62,WSW,248,2.5,4.9,31,0.00,,,0.00,WUHU216HW,2013-04-26 23:54:00,
2013-04-26 16:55:00,70.7,39.3,27.61,SSW,203,3.1,4.9,32,0.00,,,0.00,WUHU216HW,2013-04-26 23:55:00,
2013-04-26 17:05:00,71.6,41.0,27.62,SSW,203,3.4,6.0,33,0.00,,,0.00,WUHU216HW,2013-04-27 00:05:00,
2013-04-26 17:10:00,71.8,38.9,27.61,SW,225,3.6,6.0,30,0.00,,,0.00,WUHU216HW,2013-04-27 00:10:00,
2013-04-26 17:15:00,71.1,39.7,27.61,WSW,248,2.5,4.3,32,0.00,,,0.00,WUHU216HW,2013-04-27 00:15:00,
2013-04-26 17:20:00,70.4,39.8,27.61,SW,225,3.8,4.0,33,0.00,,,0.00,WUHU216HW,2013-04-27 00:20:00,
2013-04-26 17:25:00,70.0,40.2,27.61,WSW,248,2.7,4.0,34,0.00,,,0.00,WUHU216HW,2013-04-27 00:25:00,
2013-04-26 17:30:00,70.0,39.4,27.61,SSW,203,3.1,3.4,33,0.00,,,0.00,WUHU216HW,2013-04-27 00:30:00,
2013-04-26 17:35:00,70.2,39.6,27.61,SW,225,3.4,3.6,33,0.00,,,0.00,WUHU216HW,2013-04-27 00:35:00,
2013-04-26 17:40:00,70.9,39.5,27.61,SSW,203,3.4,6.3,32,0.00,,,0.00,WUHU216HW,2013-04-27 00:40:00,
2013-04-26 17:45:00,70.9,38.1,27.61,West,270,6.7,6.7,30,0.00,,,0.00,WUHU216HW,2013-04-27 00:45:00,
2013-04-26 17:50:00,70.9,39.5,27.61,WSW,248,2.2,6.7,32,0.00,,,0.00,WUHU216HW,2013-04-27 00:50:00,
2013-04-26 17:55:00,70.9,38.8,27.61,WSW,248,4.0,4.9,31,0.00,,,0.00,WUHU216HW,2013-04-27 00:55:00,
2013-04-26 18:00:00,70.6,40.0,27.61,SW,225,2.0,4.9,33,0.00,,,0.00,WUHU216HW,2013-04-27 01:00:00,
2013-04-26 18:05:00,70.6,40.0,27.61,South,180,2.7,4.9,33,0.00,,,0.00,WUHU216HW,2013-04-27 01:05:00,
2013-04-26 18:10:00,70.2,38.2,27.61,SW,225,4.9,5.6,31,0.00,,,0.00,WUHU216HW,2013-04-27 01:10:00,
2013-04-26 18:15:00,70.2,38.9,27.60,SW,225,2.5,5.6,32,0.00,,,0.00,WUHU216HW,2013-04-27 01:15:00,
2013-04-26 18:20:00,70.0,40.2,27.60,SW,225,3.4,6.9,34,0.00,,,0.00,WUHU216HW,2013-04-27 01:20:00,
2013-04-26 18:25:00,69.8,40.1,27.60,SSW,203,2.5,6.9,34,0.00,,,0.00,WUHU216HW,2013-04-27 01:25:00,
2013-04-26 18:30:00,69.7,39.2,27.60,SW,225,1.8,3.4,33,0.00,,,0.00,WUHU216HW,2013-04-27 01:30:00,
2013-04-26 18:35:00,69.5,39.7,27.60,SW,225,1.3,3.4,34,0.00,,,0.00,WUHU216HW,2013-04-27 01:35:00,
2013-04-26 18:40:00,69.3,39.5,27.59,SSW,203,1.8,2.5,34,0.00,,,0.00,WUHU216HW,2013-04-27 01:40:00,
2013-04-26 18:45:00,69.3,39.5,27.59,SSE,158,0.7,2.2,34,0.00,,,0.00,WUHU216HW,2013-04-27 01:45:00,
2013-04-26 18:50:00,69.1,39.4,27.59,South,180,0.7,1.8,34,0.00,,,0.00,WUHU216HW,2013-04-27 01:50:00,
2013-04-26 18:55:00,68.8,39.1,27.59,SSW,203,1.3,1.6,34,0.00,,,0.00,WUHU216HW,2013-04-27 01:55:00,
2013-04-26 19:00:00,68.6,38.9,27.59,SSW,203,0.9,1.8,34,0.00,,,0.00,WUHU216HW,2013-04-27 02:00:00,
2013-04-26 19:05:00,68.2,39.3,27.59,SSW,203,0.0,1.8,35,0.00,,,0.00,WUHU216HW,2013-04-27 02:05:00,
2013-04-26 19:10:00,67.9,41.2,27.59,SE,135,0.4,0.4,38,0.00,,,0.00,WUHU216HW,2013-04-27 02:10:00,
2013-04-26 19:15:00,67.3,40.8,27.59,SE,135,0.0,0.4,38,0.00,,,0.00,WUHU216HW,2013-04-27 02:15:00,
2013-04-26 19:20:00,66.6,40.9,27.59,SE,135,0.4,0.7,39,0.00,,,0.00,WUHU216HW,2013-04-27 02:20:00,
2013-04-26 19:25:00,65.7,40.1,27.58,SE,135,0.0,0.7,39,0.00,,,0.00,WUHU216HW,2013-04-27 02:25:00,
2013-04-26 19:30:00,65.2,40.2,27.59,SE,135,0.0,0.4,40,0.00,,,0.00,WUHU216HW,2013-04-27 02:30:00,
2013-04-26 19:35:00,64.4,39.6,27.59,SE,135,0.0,0.7,40,0.00,,,0.00,WUHU216HW,2013-04-27 02:35:00,
2013-04-26 19:40:00,63.9,39.7,27.58,SE,135,0.0,0.7,41,0.00,,,0.00,WUHU216HW,2013-04-27 02:40:00,
2013-04-26 19:45:00,63.4,39.3,27.58,SE,135,0.0,0.7,41,0.00,,,0.00,WUHU216HW,2013-04-27 02:45:00,
2013-04-26 19:50:00,62.8,38.7,27.59,SE,135,0.0,0.2,41,0.00,,,0.00,WUHU216HW,2013-04-27 02:50:00,
2013-04-26 19:55:00,62.3,39.4,27.59,SE,135,0.0,0.2,43,0.00,,,0.00,WUHU216HW,2013-04-27 02:55:00,
2013-04-26 20:00:00,61.6,39.3,27.59,SE,135,0.0,0.2,44,0.00,,,0.00,WUHU216HW,2013-04-27 03:00:00,
2013-04-26 20:05:00,60.7,40.2,27.59,ESE,113,1.1,1.1,47,0.00,,,0.00,WUHU216HW,2013-04-27 03:05:00,
2013-04-26 20:10:00,60.1,39.8,27.59,SW,225,0.7,1.1,47,0.00,,,0.00,WUHU216HW,2013-04-27 03:10:00,
2013-04-26 20:15:00,59.8,39.4,27.59,ESE,113,0.2,0.7,47,0.00,,,0.00,WUHU216HW,2013-04-27 03:15:00,
2013-04-26 20:20:00,59.4,39.7,27.59,ESE,113,0.7,0.7,48,0.00,,,0.00,WUHU216HW,2013-04-27 03:20:00,
2013-04-26 20:25:00,59.4,38.5,27.60,ESE,113,0.0,0.7,46,0.00,,,0.00,WUHU216HW,2013-04-27 03:25:00,
2013-04-26 20:30:00,59.8,39.4,27.60,ESE,113,0.0,0.4,47,0.00,,,0.00,WUHU216HW,2013-04-27 03:30:00,
2013-04-26 20:35:00,59.6,39.2,27.60,ESE,113,0.0,0.2,47,0.00,,,0.00,WUHU216HW,2013-04-27 03:35:00,
2013-04-26 20:40:00,59.4,39.1,27.60,ESE,113,0.0,1.1,47,0.00,,,0.00,WUHU216HW,2013-04-27 03:40:00,
2013-04-26 20:45:00,59.0,38.8,27.60,ESE,113,0.0,1.1,47,0.00,,,0.00,WUHU216HW,2013-04-27 03:45:00,
2013-04-26 20:50:00,58.9,38.6,27.60,ESE,113,0.0,0.0,47,0.00,,,0.00,WUHU216HW,2013-04-27 03:50:00,
2013-04-26 20:55:00,58.5,38.9,27.60,ESE,113,0.0,0.0,48,0.00,,,0.00,WUHU216HW,2013-04-27 03:55:00,
2013-04-26 21:00:00,58.1,38.5,27.60,ESE,113,0.0,0.0,48,0.00,,,0.00,WUHU216HW,2013-04-27 04:00:00,
2013-04-26 21:01:00,58.1,38.5,27.60,ESE,113,0.0,0.0,48,0.00,,,0.00,WUHU216HW,2013-04-27 04:01:00,
2013-04-26 21:06:00,57.8,39.3,27.61,ESE,113,0.0,0.0,50,0.00,,,0.00,WUHU216HW,2013-04-27 04:06:00,
2013-04-26 21:11:00,57.2,38.9,27.61,ESE,113,0.0,0.0,50,0.00,,,0.00,WUHU216HW,2013-04-27 04:11:00,
2013-04-26 21:16:00,56.9,39.0,27.61,ESE,113,0.2,0.2,51,0.00,,,0.00,WUHU216HW,2013-04-27 04:16:00,
2013-04-26 21:21:00,56.5,39.1,27.61,ESE,113,0.0,0.2,52,0.00,,,0.00,WUHU216HW,2013-04-27 04:21:00,
2013-04-26 21:26:00,56.0,38.5,27.61,ESE,113,0.0,0.2,52,0.00,,,0.00,WUHU216HW,2013-04-27 04:26:00,
2013-04-26 21:31:00,55.4,38.5,27.61,ESE,113,0.0,0.2,53,0.00,,,0.00,WUHU216HW,2013-04-27 04:31:00,
2013-04-26 21:36:00,55.1,38.6,27.61,ESE,113,0.0,0.0,54,0.00,,,0.00,WUHU216HW,2013-04-27 04:36:00,
2013-04-26 21:41:00,54.7,39.2,27.61,ESE,113,0.2,0.7,56,0.00,,,0.00,WUHU216HW,2013-04-27 04:41:00,
2013-04-26 21:46:00,54.4,38.9,27.61,ESE,113,0.0,0.7,56,0.00,,,0.00,WUHU216HW,2013-04-27 04:46:00,
2013-04-26 21:51:00,53.8,38.4,27.61,ESE,113,0.0,0.4,56,0.00,,,0.00,WUHU216HW,2013-04-27 04:51:00,
2013-04-26 21:56:00,53.5,38.5,27.61,ESE,113,0.0,0.0,57,0.00,,,0.00,WUHU216HW,2013-04-27 04:56:00,
2013-04-26 22:01:00,53.1,38.7,27.61,ESE,113,0.0,0.0,58,0.00,,,0.00,WUHU216HW,2013-04-27 05:01:00,
2013-04-26 22:06:00,52.7,38.8,27.61,ESE,113,0.0,0.0,59,0.00,,,0.00,WUHU216HW,2013-04-27 05:06:00,
2013-04-26 22:11:00,52.6,39.5,27.61,ESE,113,0.0,0.0,61,0.00,,,0.00,WUHU216HW,2013-04-27 05:11:00,
2013-04-26 22:16:00,52.2,39.2,27.61,ESE,113,0.0,0.0,61,0.00,,,0.00,WUHU216HW,2013-04-27 05:16:00,
2013-04-26 22:21:00,52.0,39.3,27.61,ESE,113,0.0,0.0,62,0.00,,,0.00,WUHU216HW,2013-04-27 05:21:00,
2013-04-26 22:26:00,51.7,39.0,27.61,ESE,113,0.0,0.0,62,0.00,,,0.00,WUHU216HW,2013-04-27 05:26:00,
2013-04-26 22:31:00,51.3,38.7,27.61,ESE,113,0.0,0.0,62,0.00,,,0.00,WUHU216HW,2013-04-27 05:31:00,
2013-04-26 22:36:00,51.1,39.3,27.61,ESE,113,0.0,0.0,64,0.00,,,0.00,WUHU216HW,2013-04-27 05:36:00,
2013-04-26 22:41:00,50.8,39.0,27.60,ESE,113,0.0,0.0,64,0.00,,,0.00,WUHU216HW,2013-04-27 05:41:00,
2013-04-26 22:46:00,50.6,38.4,27.60,ESE,113,0.0,0.0,63,0.00,,,0.00,WUHU216HW,2013-04-27 05:46:00,
2013-04-26 22:51:00,50.4,38.6,27.60,ESE,113,0.0,0.0,64,0.00,,,0.00,WUHU216HW,2013-04-27 05:51:00,
2013-04-26 22:56:00,50.0,38.7,27.61,ESE,113,0.0,0.0,65,0.00,,,0.00,WUHU216HW,2013-04-27 05:56:00,
2013-04-26 23:01:00,49.9,38.9,27.60,ESE,113,0.0,0.0,66,0.00,,,0.00,WUHU216HW,2013-04-27 06:01:00,
2013-04-26 23:06:00,49.7,39.2,27.60,ESE,113,0.0,0.0,67,0.00,,,0.00,WUHU216HW,2013-04-27 06:06:00,
2013-04-26 23:11:00,49.5,39.3,27.60,ESE,113,0.2,0.2,68,0.00,,,0.00,WUHU216HW,2013-04-27 06:11:00,
2013-04-26 23:16:00,49.3,39.2,27.60,ESE,113,0.0,0.2,68,0.00,,,0.00,WUHU216HW,2013-04-27 06:16:00,
2013-04-26 23:21:00,49.3,39.2,27.60,ESE,113,0.0,0.2,68,0.00,,,0.00,WUHU216HW,2013-04-27 06:21:00,
2013-04-26 23:26:00,49.3,39.2,27.60,ESE,113,0.0,0.2,68,0.00,,,0.00,WUHU216HW,2013-04-27 06:26:00,
2013-04-26 23:31:00,49.1,39.0,27.61,ESE,113,0.2,0.4,68,0.00,,,0.00,WUHU216HW,2013-04-27 06:31:00,
2013-04-26 23:36:00,49.1,39.0,27.60,ESE,113,0.0,0.4,68,0.00,,,0.00,WUHU216HW,2013-04-27 06:36:00,
2013-04-26 23:41:00,49.0,39.3,27.60,ESE,113,0.0,0.2,69,0.00,,,0.00,WUHU216HW,2013-04-27 06:41:00,
2013-04-26 23:46:00,49.0,39.6,27.60,ESE,113,0.4,0.4,70,0.00,,,0.00,WUHU216HW,2013-04-27 06:46:00,
2013-04-26 23:51:00,48.8,39.4,27.60,ESE,113,0.4,0.7,70,0.00,,,0.00,WUHU216HW,2013-04-27 06:51:00,
2013-04-26 23:56:00,48.6,39.2,27.60,ESE,113,0.0,0.7,70,0.00,,,0.00,WUHU216HW,2013-04-27 06:56:00,